Hays, KS

5:52 AM CDT on October 15, 2019 (GMT -0500)
Hays Regional

Weather History for KHYS - September, 2019

Change the Weather History Date:

Friday, September 20, 2019

  Actual Average Record
Temperature  
Mean Temperature 78 °F -  
Max Temperature 86 °F 75 °F 98 °F (2016)
Min Temperature 69 °F 50 °F 39 °F (2002)
Cooling Degree Days 12    
Growing Degree Days 28 (Base 50)    
Moisture  
Dew Point 66 °F    
Average Humidity 72    
Maximum Humidity 93    
Minimum Humidity 49    
Precipitation  
Precipitation 0.00 in - - ()
Sea Level Pressure  
Sea Level Pressure 29.85 in    
Wind  
Wind Speed 13 mph (SSE)    
Max Wind Speed 25 mph    
Max Gust Speed 33 mph    
Visibility 10 miles    
Events      
Averages and records for this station are not official NWS values.
T = Trace of Precipitation, MM = Missing Value Source: NWS Daily Summary

Daily Weather History Graph

Daily Weather History Graph

Search for Another Location

Airport or City:

Astronomy

Sep. 20, 2019 Rise Set
Actual Time 7:22 AM CDT 7:37 PM CDT
Civil Twilight 6:56 AM CDT 8:04 PM CDT
Nautical Twilight 6:24 AM CDT 8:35 PM CDT
Astronomical Twilight 5:53 AM CDT 9:06 PM CDT
Moon 11:32 PM CDT (9/20) 1:25 PM CDT (9/20)
Length of Visible Light 13h 07m
Length of Day
12h 14m
Waning Gibbous, 65% of the Moon is Illuminated
Sep 20
Waning Gibbous
Sep 21
Last Quarter
Sep 28
New
Oct 5
First Quarter
Oct 13
Full

Hourly Weather History & Observations

Time (CDT) Temp. Heat Index Dew Point Humidity Pressure Visibility Wind Dir Wind Speed Gust Speed Precip Events Conditions
12:56 AM 70.0 °F - 64.9 °F 84% 29.91 in 10.0 mi SE 6.9 mph - N/A   Clear
1:56 AM 70.0 °F - 66.0 °F 87% 29.89 in 10.0 mi SE 11.5 mph - N/A   Clear
2:56 AM 72.0 °F - 66.9 °F 84% 29.88 in 10.0 mi SSE 12.7 mph - N/A   Clear
3:56 AM 70.0 °F - 66.9 °F 90% 29.87 in 10.0 mi SSE 11.5 mph - N/A   Clear
5:56 AM 69.1 °F - 66.9 °F 93% 29.88 in 10.0 mi SSE 9.2 mph - N/A   Clear
6:56 AM 69.1 °F - 66.9 °F 93% 29.91 in 10.0 mi South 10.4 mph - N/A   Clear
7:56 AM 69.1 °F - 66.9 °F 93% 29.91 in 10.0 mi SSE 8.1 mph - N/A   Clear
8:56 AM 70.0 °F - 66.9 °F 90% 29.91 in 10.0 mi SSE 12.7 mph - N/A   Clear
9:56 AM 77.0 °F - 68.0 °F 74% 29.91 in 10.0 mi SSE 19.6 mph 23.0 mph N/A   Clear
10:56 AM 79.0 °F - 66.0 °F 64% 29.90 in 10.0 mi South 18.4 mph 24.2 mph N/A   Clear
11:56 AM 81.0 °F 83.3 °F 66.9 °F 62% 29.89 in 10.0 mi South 17.3 mph - N/A   Clear
12:56 PM 82.9 °F 85.0 °F 66.0 °F 56% 29.86 in 10.0 mi SSE 18.4 mph 26.5 mph N/A   Clear
1:56 PM 84.0 °F 85.4 °F 64.0 °F 51% 29.84 in 10.0 mi South 19.6 mph - N/A   Scattered Clouds
2:56 PM 84.9 °F 86.6 °F 64.9 °F 51% 29.81 in 10.0 mi SSE 15.0 mph - N/A   Partly Cloudy
3:56 PM 86.0 °F 87.6 °F 64.9 °F 49% 29.78 in 10.0 mi SSE 20.7 mph - N/A   Partly Cloudy
4:56 PM 84.9 °F 87.1 °F 66.0 °F 53% 29.77 in 10.0 mi SE 25.3 mph 33.4 mph N/A   Mostly Cloudy
5:56 PM 82.9 °F 84.6 °F 64.9 °F 54% 29.78 in 10.0 mi SSE 17.3 mph - N/A   Partly Cloudy
6:56 PM 82.0 °F 83.8 °F 64.9 °F 56% 29.78 in 10.0 mi SSE 19.6 mph 27.6 mph N/A   Partly Cloudy
7:56 PM 78.1 °F - 66.0 °F 66% 29.79 in 10.0 mi SSE 17.3 mph - N/A   Clear
8:56 PM 77.0 °F - 66.0 °F 69% 29.79 in 10.0 mi SSE 17.3 mph - N/A   Clear
9:56 PM 75.9 °F - 66.9 °F 74% 29.79 in 10.0 mi SSE 19.6 mph 25.3 mph N/A   Clear
10:56 PM 75.0 °F - 66.9 °F 76% 29.80 in 10.0 mi SSE 18.4 mph 24.2 mph N/A   Clear
11:56 PM 75.0 °F - 69.1 °F 82% 29.80 in 10.0 mi SSE 16.1 mph - N/A   Clear